This is the latest recevied weather packets stored in our database for station/object N5SNT-2. If no packets are shown the sender has not sent any weather packets the latest 10 day(s).
| Time | Temp. | Humidity | Pressure | Rain* | Wind** | Luminosity | Snow |
|---|---|---|---|---|---|---|---|
| 1777845743 | 25° C | 39% | 1020 hPa | 0 mm | - | 501 W/m² | - |
| 1777845443 | 25° C | 39% | 1020 hPa | 0 mm | - | 358 W/m² | - |
| 1777845143 | 25.56° C | 39% | 1020 hPa | 0 mm | - | 533 W/m² | - |
| 1777844843 | 25.56° C | 39% | 1021 hPa | 0 mm | - | 579 W/m² | - |
| 1777844543 | 25.56° C | 38% | 1020 hPa | 0 mm | - | 611 W/m² | - |
| 1777844243 | 25.56° C | 39% | 1020 hPa | 0 mm | - | 625 W/m² | - |
| 1777843943 | 25.56° C | 39% | 1020 hPa | 0 mm | - | 634 W/m² | - |
| 1777843643 | 25° C | 38% | 1020 hPa | 0 mm | - | 653 W/m² | - |
| 1777843344 | 25.56° C | 40% | 1021 hPa | 0 mm | - | 670 W/m² | - |
| 1777843043 | 25.56° C | 40% | 1021 hPa | 0 mm | - | 689 W/m² | - |
| 1777842744 | 25° C | 39% | 1021 hPa | 0 mm | - | 717 W/m² | - |
| 1777842444 | 25° C | 39% | 1021 hPa | 0 mm | - | 708 W/m² | - |
| 1777842145 | 25° C | 40% | 1021 hPa | 0 mm | - | 591 W/m² | - |
| 1777841843 | 25.56° C | 39% | 1021 hPa | 0 mm | - | 352 W/m² | - |
| 1777841543 | 25° C | 38% | 1021 hPa | 0 mm | - | 781 W/m² | - |
| 1777841243 | 25.56° C | 38% | 1021 hPa | 0 mm | - | 732 W/m² | - |
| 1777840943 | 25.56° C | 37% | 1021 hPa | 0 mm | - | 794 W/m² | - |
| 1777840643 | 25° C | 38% | 1021 hPa | 0 mm | - | 797 W/m² | - |
| 1777840343 | 25° C | 40% | 1022 hPa | 0 mm | - | 816 W/m² | - |
| 1777840043 | 25.56° C | 37% | 1022 hPa | 0 mm | - | 830 W/m² | - |
| 1777839743 | 25° C | 39% | 1022 hPa | 0 mm | - | 804 W/m² | - |
| 1777839443 | 25° C | 42% | 1022 hPa | 0 mm | - | 854 W/m² | - |
| 1777839143 | 25.56° C | 39% | 1022 hPa | 0 mm | - | 863 W/m² | - |
| 1777838844 | 25° C | 39% | 1022 hPa | 0 mm | - | 873 W/m² | - |
| 1777838544 | 25° C | 38% | 1022 hPa | 0 mm | - | 870 W/m² | - |
* Rain latest hour (hover to see other rain measurements)
** Current wind speed in m/s (hover to see current wind gust speed)